{"data":{"norad_id":56554,"epoch":"2026-09-20T05:47:09.750912Z","epoch_age_seconds":137102,"freshness":"FRESH","line1":"1 56554U 23065BD  26263.24108508  .00000422  00000+0  24870-4 0  9990","line2":"2 56554  43.0035 205.0841 0001692 258.9683 101.0978 15.27578658186220","mean_motion":15.27578658,"eccentricity":0.0001692,"inclination_deg":43.0035,"raan_deg":205.0841,"arg_perigee_deg":258.9683,"mean_anomaly_deg":101.0978,"bstar":2.487e-5,"rev_number":18622,"period_min":94.266831528357,"perigee_km":481.89220110601,"apogee_km":484.21402784075,"semimajor_km":6861.1901144734,"source":"CELESTRAK","updated_at":"2026-09-21T09:00:33.479601Z"}}